Regional Weather Roundup
Issued by NWS

Home | Current Version | Previous Version | Text Only | Print | Product List | Glossary Off
Versions: 1 2 3 4 5 6 7 8 9 10 11 12 13 14 15 16 17 18 19 20 21 22 23 24 25 26 27 28 29 30 31 32 33 34 35 36 37 38 39 40 41 42 43 44 45 46 47 48 49 50

000
ASUS43 KIND 191600
RWRIN

WEATHER ROUNDUP FOR INDIANA
NATIONAL WEATHER SERVICE INDIANAPOLIS IN
1200 PM EDT SAT AUG 19 2017

NOTE: "FAIR" INDICATES FEW OR NO CLOUDS BELOW 12,000 FEET WITH NO
SIGNIFICANT WEATHER AND/OR OBSTRUCTIONS TO VISIBILITY.

* - STATION DOES NOT REPORT WEATHER SUCH AS PRECIPITATION OR FOG.

+ - STATION NOT QUALITY CONTROLLED BY THE NATIONAL WEATHER SERVICE.
    USE DATA WITH CAUTION...ESPECIALLY DEWPOINT AND RELATIVE
    HUMIDITY OBSERVATIONS.

INZ001>003-010>013-019-020-191700-
NORTHWEST INDIANA

CITY           SKY/WX    TMP DP  RH WIND       PRES   REMARKS
GARY /AIRPORT/ MOSUNNY   75  61  60 VRB5      29.98R
MICHIGAN CITY+ MOSUNNY   73  61  64 N7        29.98R
MONTICELLO +   SUNNY     76  64  66 NE6       29.96R
RENSSELAER +   SUNNY     75  59  57 NE5       29.97R

$$

LMZ046-743>745-191700-
SOUTHERN LAKE MICHIGAN

STATION/POSITION TIME  TEMP    WIND        PRES    WAVE
                       AIR SEA DIR/SP/G            HT
                 (UTC) (F)     (DEG/KT/KT) (MB)    (FT)
BURNS HARBOR     1540   71     360/  4/  6 1015.2S
MICHIGAN CITY    1530   72     330/  4/  5   N/A
5NW MICH CITY    1550   71 74  330/  6/  8   N/A     2

$$

INZ004-005-014>016-021>024-191700-
NORTH CENTRAL INDIANA

CITY           SKY/WX    TMP DP  RH WIND       PRES   REMARKS
ELKHART        MOSUNNY   75  59  57 NW7       29.97R
GOSHEN         SUNNY     74  58  57 W6        29.96S
PERU/GRISSOM   SUNNY     75  65  69 N7        29.95F
SOUTH BEND     SUNNY     76  61  59 NW7       29.97R

$$

INZ006>009-017-018-025>027-191700-
NORTHEAST INDIANA

CITY           SKY/WX    TMP DP  RH WIND       PRES   REMARKS
FORT WAYNE     MOSUNNY   77  62  59 NW9       29.97R
KENDALLVILLE + SUNNY     73  63  71 N6        29.97S

$$

INZ028-029-035-036-043>045-051>053-191700-
WEST CENTRAL INDIANA

CITY           SKY/WX    TMP DP  RH WIND       PRES   REMARKS
LAFAYETTE      SUNNY     78  66  66 N8        29.95R
TERRE HAUTE    SUNNY     81  65  58 CALM      29.96S

$$

INZ030>032-037>040-046>048-054>057-064-065-191700-
CENTRAL INDIANA

CITY           SKY/WX    TMP DP  RH WIND       PRES   REMARKS
ANDERSON       SUNNY     77  64  65 MISG      29.98R
COLUMBUS       SUNNY     81  66  61 CALM      29.97R
GREENWOOD *+   SUNNY     79  65  62 CALM      29.98R
INDIANAPOLIS   MOSUNNY   81  66  60 VRB5      29.96R
-EAGLE CREEK   SUNNY     81  65  58 N7        29.96R
KOKOMO +       SUNNY     76  65  68 NW6       29.97F
MT COMFORT *+  SUNNY     79  66  65 CALM      29.98R
SHELBYVILLE    SUNNY     80  65  59 VRB5      29.97R

$$

INZ033-034-041-042-049-050-058-059-191700-
EAST CENTRAL INDIANA

CITY           SKY/WX    TMP DP  RH WIND       PRES   REMARKS
MUNCIE         SUNNY     79  65  62 W5        29.97S
RICHMOND +     SUNNY     77  66  69 SW6       29.99R

$$

INZ060-061-067>069-081>083-085>088-191700-
SOUTHWEST INDIANA

CITY           SKY/WX    TMP DP  RH WIND       PRES   REMARKS
EVANSVILLE     SUNNY     78  70  76 CALM      29.97S
HUNTINGBURG +  CLOUDY    78  71  79 CALM      29.97F

$$

INZ062-063-066-070>080-084-089>092-191700-
SOUTH CENTRAL AND SOUTHEAST INDIANA

CITY           SKY/WX    TMP DP  RH WIND       PRES   REMARKS
BLOOMINGTON    SUNNY     82  65  56 VRB3      29.97R
MADISON *+     SUNNY     82  64  54 S5        30.00S
SEYMOUR +      MOSUNNY   84  66  54 S9        29.96S

$$





USA.gov is the U.S. government's official web portal to all federal, state and local government web resources and services.